EW0235 Weather Reports


time (UTC)temp
C
wind
direction
speed
KPH
gust
KPH
rain 1hr
cm
rain 24hr
cm
rain mn
cm
humidity
%
barometer
mb
20260506014558 21 247 0.0 0.0 0.00 0.00 0.00 49 1012.7
20260506013104 22 247 0.0 0.0 0.00 0.00 0.00 49 1012.8
20260506011605 22 247 0.0 0.0 0.00 0.00 0.00 48 1012.7
20260506010057 22 247 0.0 0.0 0.00 0.00 0.00 47 1012.4
20260506004600 23 247 0.0 0.0 0.00 0.00 0.00 46 1012.6
20260506003056 23 247 0.0 0.0 0.00 0.00 0.00 46 1012.7
20260506001558 23 247 0.0 0.0 0.00 0.00 0.00 45 1012.6
20260505234555 24 247 0.0 0.0 0.00 0.00 0.00 43 1012.5
20260505233057 24 247 0.0 0.0 0.00 0.00 0.00 43 1012.5
20260505231554 24 248 0.0 0.0 0.00 0.00 0.00 45 1012.4
20260505230119 24 256 0.0 0.0 0.00 0.00 0.00 44 1012.4
20260505224553 24 256 0.0 0.0 0.00 0.00 0.00 45 1012.4
20260505223052 24 256 0.0 0.0 0.00 0.00 0.00 44 1012.4
20260505221557 24 256 0.0 0.0 0.00 0.00 0.00 43 1012.3
20260505220056 24 257 0.0 0.0 0.00 0.00 0.00 44 1012.2
20260505214550 24 243 0.0 0.0 0.00 0.00 0.00 43 1012.3
20260505213047 24 228 0.0 0.0 0.00 0.00 0.00 42 1012.6
20260505211558 24 227 0.0 0.0 0.00 0.00 0.00 44 1012.6
20260505210046 24 226 0.0 0.0 0.00 0.00 0.00 44 1012.6
20260505204544 25 237 0.0 0.0 0.00 0.00 0.00 43 1012.8
20260505203044 25 240 0.0 0.0 0.00 0.00 0.00 41 1012.9
20260505201548 25 237 0.0 0.0 0.00 0.00 0.00 42 1013.2
20260505200042 25 237 0.0 0.0 0.00 0.00 0.00 44 1013.4
20260505194542 25 235 0.0 0.0 0.00 0.00 0.00 45 1013.7
20260505193044 24 272 0.0 0.0 0.00 0.00 0.00 42 1013.7
20260505191541 24 243 0.0 0.0 0.00 0.00 0.00 44 1013.8
20260505190035 24 226 0.0 0.0 0.00 0.00 0.00 44 1013.9
20260505184535 24 230 0.0 0.0 0.00 0.00 0.00 44 1014.0
20260505183037 24 260 0.0 0.0 0.00 0.00 0.00 45 1014.3
20260505181534 25 186 0.0 0.0 0.00 0.00 0.00 41 1014.7
20260505180032 25 243 0.0 0.0 0.00 0.00 0.00 42 1014.7
20260505174529 25 206 0.0 0.0 0.00 0.00 0.00 44 1015.0
20260505173027 25 251 0.0 0.0 0.00 0.00 0.00 45 1015.2
20260505171526 25 270 0.0 0.0 0.00 0.00 0.00 44 1015.3
20260505170030 24 230 0.0 0.0 0.00 0.00 0.00 44 1015.2
20260505164523 23 185 0.0 0.0 0.00 0.00 0.00 43 1015.1
20260505163021 23 232 0.0 0.0 0.00 0.00 0.00 46 1015.1
20260505161536 23 272 0.0 0.0 0.00 0.00 0.00 50 1015.4
20260505153018 23 48 0.0 0.0 0.00 0.00 0.00 48 1015.5
20260505151516 23 241 0.0 0.0 0.00 0.00 0.00 49 1015.6
20260505124551 13 183 0.0 0.0 0.00 0.00 0.00 81 1015.2
20260505123046 12 183 0.0 0.0 0.00 0.00 0.00 86 1014.9
20260505121545 11 183 0.0 0.0 0.00 0.00 0.00 88 1015.0
20260505120046 11 183 0.0 0.0 0.00 0.00 0.00 89 1015.1
20260505114542 10 183 0.0 0.0 0.00 0.00 0.00 88 1014.9
20260505113042 10 183 0.0 0.0 0.00 0.00 0.00 87 1014.6
20260505111541 10 183 0.0 0.0 0.00 0.00 0.00 86 1014.4
20260505101543 11 22 0.0 0.0 0.00 0.00 0.00 84 1014.1
20260505100035 11 22 0.0 0.0 0.00 0.00 0.00 84 1014.5
20260505094532 11 22 0.0 0.0 0.00 0.00 0.00 83 1014.2
20260505093034 11 22 0.0 0.0 0.00 0.00 0.00 83 1014.2
20260505091534 11 22 0.0 0.0 0.00 0.00 0.00 82 1014.3
20260505090039 11 22 0.0 0.0 0.00 0.00 0.00 82 1014.5
20260505084526 11 22 0.0 0.0 0.00 0.00 0.00 80 1014.6
20260505083025 11 22 0.0 0.0 0.00 0.00 0.00 80 1014.5
20260505081526 12 22 0.0 0.0 0.00 0.00 0.00 80 1014.6
20260505080038 12 22 0.0 0.0 0.00 0.00 0.00 79 1014.5
20260505074525 12 22 0.0 0.0 0.00 0.00 0.00 79 1014.4
20260505073028 12 22 0.0 0.0 0.00 0.00 0.00 78 1014.4
20260505071518 12 22 0.0 0.0 0.00 0.00 0.00 78 1014.5
20260505070017 12 22 0.0 0.0 0.00 0.00 0.00 77 1014.4
20260505064515 13 22 0.0 0.0 0.00 0.00 0.00 76 1014.5
20260505063014 13 22 0.0 0.0 0.00 0.00 0.00 75 1014.5
20260505061510 13 22 0.0 0.0 0.00 0.00 0.00 74 1014.6
20260505060009 13 22 0.0 0.0 0.00 0.00 0.00 73 1014.6
20260505054507 13 22 0.0 0.0 0.00 0.00 0.00 72 1014.7
20260505053006 14 22 0.0 0.0 0.00 0.00 0.00 72 1014.7
20260505051504 15 249 0.0 0.0 0.00 0.00 0.00 71 1014.7
20260505041555 16 234 0.0 0.0 0.00 0.00 0.00 65 1014.6
20260505034551 16 234 0.0 0.0 0.00 0.00 0.00 62 1014.8
20260505033045 16 234 0.0 0.0 0.00 0.00 0.00 61 1014.8
20260505031552 16 234 0.0 0.0 0.00 0.00 0.00 61 1014.8
20260505030035 16 234 0.0 0.0 0.00 0.00 0.00 62 1014.8
20260505024544 17 234 0.0 0.0 0.00 0.00 0.00 61 1014.8
20260505023036 17 234 0.0 0.0 0.00 0.00 0.00 61 1014.7
20260505021520 17 234 0.0 0.0 0.00 0.00 0.00 59 1014.7
20260505020018 17 234 0.0 0.0 0.00 0.00 0.00 58 1014.6